Overview Statistics Trail Chart Weather Telemetry Raw packets
 

This is the latest recevied weather packets stored in our database for station/object HS5MOA-13. If no packets are shown the sender has not sent any weather packets the latest 10 day(s).

<< 53 54 55 56 57 >>
Time Temp. Humidity Pressure Rain* Wind** Luminosity Snow
1787748073 31.11° C 5% 973.5 hPa 0 mm - - -
1787747461 31.11° C 5% 973.4 hPa 0 mm - - -
1787746850 31.11° C 5% 973.4 hPa 0 mm - - -
1787746238 31.11° C 5% 973.2 hPa 0 mm - - -
1787745627 31.11° C 5% 972.8 hPa 0 mm - - -
1787745015 31.11° C 5% 972.8 hPa 0 mm - - -
1787744404 31.11° C 5% 972.9 hPa 0 mm - - -
1787743792 31.11° C 5% 972.7 hPa 0 mm - - -
1787743181 31.67° C 5% 972.5 hPa 0 mm - - -
1787742569 31.11° C 5% 972.4 hPa 0 mm - - -
1787741958 31.67° C 5% 972.4 hPa 0 mm - - -
1787741346 32.22° C 5% 972.2 hPa 0 mm - - -
1787740735 32.22° C 5% 972.2 hPa 0 mm - - -
1787740123 32.22° C 5% 972.4 hPa 0 mm - - -
1787739512 32.78° C 5% 972.3 hPa 0 mm - - -
1787738900 33.89° C 5% 972.2 hPa 0 mm - - -
1787738289 35.56° C 5% 972 hPa 0 mm - - -
1787737677 36.67° C 5% 971.9 hPa 0 mm - - -
1787737066 37.22° C 5% 971.6 hPa 0 mm - - -
1787736454 37.22° C 5% 971.3 hPa 0 mm - - -
1787735843 37.22° C 5% 971.2 hPa 0 mm - - -
1787735232 37.22° C 5% 971.5 hPa 0 mm - - -
1787734620 37.22° C 5% 971.6 hPa 0 mm - - -
1787734009 37.22° C 5% 971.6 hPa 0 mm - - -
1787733397 37.22° C 5% 971.9 hPa 0 mm - - -

* Rain latest hour (hover to see other rain measurements)
** Current wind speed in m/s (hover to see current wind gust speed)